Vorticity
nan nan nan nan nan nan nan nan nan nan nan nan nan nan nan nan nan nan nan nan nan nan nan nan nan nan nan nan nan nan nan nan nan nan nan nan nan nan nan nan nan nan nan nan nan nan nan nan nan
nan -1 3 7 6 3 10 12 7 7 9 8 5 8 6 6 15 14 11 14 6 5 6 8 8 4 3 2 3 4 4 5 5 4 4 4 4 4 4 4 5 5 5 5 5 5 4 4 nan
nan 1 2 8 5 6 6 6 14 15 4 6 5 5 9 10 13 8 12 9 5 4 7 11 8 5 3 2 3 4 4 4 5 5 4 4 4 6 5 5 5 5 5 6 5 4 3 4 nan
nan 6 4 5 3 13 12 2 5 9 10 11 7 5 13 16 9 10 11 5 4 6 10 11 7 5 4 2 3 4 4 4 4 4 5 5 5 4 5 6 5 5 5 4 4 5 3 3 nan
nan 7 6 4 7 9 13 10 3 1 9 10 7 11 8 13 15 10 4 4 4 6 9 10 8 6 6 5 5 4 4 4 4 4 4 4 4 4 4 4 4 5 5 5 5 5 4 4 nan
nan 8 5 5 8 12 8 6 12 9 3 3 6 7 12 17 5 3 4 5 5 6 7 9 8 6 7 7 6 5 4 4 4 4 4 4 4 3 3 4 4 4 3 5 4 4 5 4 nan
nan 8 7 7 10 6 7 11 9 7 -1 2 7 4 14 8 4 6 6 6 6 6 5 6 8 9 7 5 6 5 4 4 4 4 4 3 4 4 3 6 5 5 6 4 4 5 5 3 nan
nan 4 7 9 9 -1 7 10 4 1 7 9 5 10 11 8 7 6 6 6 8 6 5 6 6 7 6 10 8 5 4 4 4 4 4 4 5 4 4 3 5 9 7 6 5 3 3 1 nan
nan 6 9 7 9 11 5 4 6 10 11 8 11 16 13 12 7 4 4 5 6 7 7 6 6 5 6 9 10 10 7 5 5 6 4 2 5 9 8 1 4 6 8 9 6 5 4 3 nan
nan 8 9 8 9 13 6 6 6 9 7 12 13 13 8 8 10 4 2 3 6 6 5 5 6 6 6 5 6 8 8 7 7 7 7 8 8 8 8 6 7 9 10 11 10 9 9 7 nan
nan 7 6 6 10 10 4 4 10 6 11 14 6 4 4 4 6 4 6 7 5 2 5 7 5 5 4 4 5 5 7 8 9 8 7 7 6 6 5 8 9 10 10 10 11 10 11 11 nan
nan 8 7 7 5 5 10 5 4 5 17 13 8 4 4 4 8 4 5 4 7 8 7 5 5 5 3 4 8 7 6 6 8 9 7 6 6 7 5 7 7 7 9 8 8 8 8 8 nan
nan 9 10 9 5 2 9 10 7 11 19 10 5 6 4 5 7 9 6 6 6 7 7 7 5 6 7 5 6 7 8 7 7 8 7 6 7 7 7 7 7 6 8 9 8 7 8 9 nan
nan 11 8 6 9 11 9 6 12 19 12 7 5 4 6 6 2 9 10 8 8 8 10 8 5 6 8 8 6 6 7 8 8 9 9 6 5 7 7 7 7 7 8 7 8 7 8 8 nan
nan 10 7 10 17 9 7 6 12 17 8 6 4 4 7 6 9 15 11 8 4 9 12 8 5 5 8 8 6 7 8 7 8 10 10 7 5 7 6 7 7 9 9 8 7 7 7 8 nan
nan 10 8 13 10 5 8 7 11 15 9 10 10 10 1 3 2 6 26 17 8 12 13 6 8 4 6 7 6 9 9 6 5 7 10 10 6 6 7 7 8 9 8 9 9 8 8 8 nan
nan 11 5 12 8 11 7 7 9 19 19 9 9 6 11 4 2 -1 3 14 16 11 12 14 11 7 3 4 7 9 9 6 8 7 8 9 9 7 7 7 9 8 7 8 7 8 8 8 nan
nan 8 10 8 7 12 11 8 5 14 22 8 3 3 4 6 10 9 4 5 0 6 2 8 11 11 8 5 5 7 8 8 9 8 8 10 9 10 6 7 8 8 7 6 9 9 7 8 nan
nan 9 7 9 11 5 4 5 3 11 7 2 -1 8 13 10 7 10 10 8 4 3 3 4 11 8 6 6 7 8 8 7 9 11 8 8 9 9 6 6 7 8 7 8 7 8 8 7 nan
nan 11 8 12 10 5 8 4 7 9 6 7 10 12 9 5 11 14 6 4 8 2 7 7 8 10 7 5 7 7 10 7 9 10 12 9 10 7 7 7 8 7 7 9 7 6 8 10 nan
nan 10 9 10 2 3 9 4 11 9 9 11 9 7 13 15 12 9 5 4 5 8 7 10 8 9 10 6 4 6 7 9 10 10 11 11 8 8 9 7 7 8 8 8 8 9 7 8 nan
nan 8 10 9 11 7 3 10 4 6 7 9 7 6 8 13 22 17 7 6 7 7 6 6 7 9 13 9 7 8 6 7 6 9 8 13 15 12 7 6 8 8 8 9 9 9 7 8 nan
nan 8 10 11 9 8 6 14 6 5 5 8 9 7 11 11 13 17 18 13 7 7 11 8 7 9 11 9 7 6 7 8 9 7 9 10 7 9 12 13 11 8 7 9 9 8 8 6 nan
nan 6 7 12 7 4 9 8 3 11 6 6 6 12 18 10 6 8 15 21 20 12 11 12 10 11 11 10 9 8 9 9 9 9 10 9 9 6 5 11 11 11 12 9 8 9 8 7 nan
nan 8 7 5 13 10 7 9 12 6 6 7 2 13 12 9 6 7 7 10 20 20 13 12 10 9 9 11 10 11 11 11 8 10 12 13 12 11 9 7 8 7 10 12 9 10 9 8 nan
nan 7 7 9 7 6 9 11 8 5 9 12 14 16 10 6 7 8 7 7 9 10 10 11 10 10 10 9 6 6 8 12 11 11 14 18 15 12 9 5 7 9 6 10 12 10 9 9 nan
nan 11 8 4 7 11 8 6 10 11 8 9 18 16 9 7 8 7 6 8 7 9 9 8 7 7 7 7 7 7 6 7 8 11 15 18 13 10 9 8 7 8 8 7 11 11 10 10 nan
nan 4 8 12 12 7 10 10 9 8 6 3 17 13 7 8 8 8 8 7 8 10 9 8 9 9 7 6 6 7 7 6 8 8 10 10 10 10 10 9 9 7 6 6 10 11 11 8 nan
nan 11 14 12 9 11 9 10 15 10 8 6 5 13 13 8 8 8 9 10 9 10 9 9 9 8 7 7 7 8 7 6 6 6 7 7 10 8 7 7 6 8 9 9 13 11 10 10 nan
nan nan nan nan nan nan nan nan nan nan nan nan nan nan nan nan nan nan nan nan nan nan nan nan nan nan nan nan nan nan nan nan nan nan nan nan nan nan nan nan nan nan nan nan nan nan nan nan nan
CAPE
1549 1428 1609 1994 87 244 417 451 479 651 477 113 138 216 438 501 130 72 77 251 166 640 1188 2190 2278 2095 1479 1683 1725 1731 1948 2065 2331 2182 2170 2155 2338 2370 2526 2529 2187 2353 2104 1634 2093 2355 2318 2226 1986
1418 1679 1979 1380 135 193 310 550 369 417 334 307 116 458 380 560 536 105 270 214 272 619 1081 1808 2272 2551 1582 1728 1995 1636 1606 2087 1860 1923 2017 2050 2114 2115 2322 2106 2060 2007 2261 2284 2436 2315 1869 1147 1233
1438 1668 1447 1280 457 79 84 185 363 748 736 943 760 563 402 361 289 172 198 125 419 801 1101 1807 2566 2803 1782 1420 1725 1800 1511 1649 2028 1806 1774 1767 1937 2419 2222 2241 2298 1989 1761 2371 2527 2648 2396 2243 2217
1615 1606 1488 411 23 221 309 359 436 659 665 642 510 414 314 405 302 258 178 276 378 921 1341 2684 2877 2204 1673 1467 1317 1892 1622 1545 1438 1548 1677 1679 1700 1649 1816 2058 2087 1982 2042 1570 1823 2145 1920 1885 2137
549 880 830 313 29 184 18 129 335 760 715 624 531 484 356 352 276 230 320 204 619 1243 2106 2160 2761 2806 2152 1581 1558 2121 1866 1718 1638 1503 1514 1487 1454 1459 1587 1262 1581 1985 2072 2055 1816 1396 1536 1699 1473
258 375 557 300 59 118 138 281 351 1153 991 895 667 496 377 298 220 290 150 582 1071 1579 2116 2028 2610 2765 2518 1703 1721 2193 2073 1876 1847 1552 1469 1471 1318 1284 1426 1624 1550 1211 1704 1869 1668 1246 1224 1538 1911
317 60 59 179 106 332 244 247 927 1085 1196 1032 962 422 268 280 183 187 425 872 1183 1585 1959 2094 1829 1779 2040 2666 2225 2167 2145 2019 1888 1749 1662 1639 1786 1561 1330 1140 799 1490 1230 1256 1576 1465 1317 1455 1315
38 13 84 160 238 206 99 537 397 482 556 948 805 520 312 340 215 102 874 1001 1168 1291 1645 1716 1889 1576 1861 2058 2433 2158 2139 2032 1889 1863 1804 1605 1451 1402 1203 221 15 1047 873 1124 1456 1412 1237 1077 1040
0 4 0 1 11 396 285 435 402 144 573 523 609 532 327 262 368 819 780 681 891 1106 1300 1436 1380 1341 1510 1681 1823 2518 2241 2152 1985 1805 1813 2052 938 808 901 16 33 123 893 755 934 1002 1376 1454 1500
0 0 0 0 0 249 437 379 281 206 1166 1054 757 346 269 621 867 891 713 678 752 964 1003 1168 1189 1253 1240 1673 1528 1593 1514 1716 1666 1499 1114 1342 703 362 259 40 49 275 563 1103 839 947 1104 1102 592
0 0 0 0 0 349 649 403 62 728 1041 938 553 417 279 152 1044 1018 898 716 719 737 787 875 1019 973 944 1099 1115 1212 1115 1097 1102 1055 817 833 224 232 45 0 0 0 51 274 526 466 617 429 260
0 0 0 0 0 0 574 368 358 689 989 899 551 408 288 160 987 1160 1193 932 800 696 684 695 748 607 531 493 878 1026 969 772 647 705 668 485 93 11 2 1 4 6 39 64 15 0 86 180 122
0 0 0 0 0 0 0 139 171 530 1056 959 711 565 425 254 129 1058 1100 1117 888 719 705 647 577 474 307 354 619 544 620 481 305 400 696 478 96 11 1 15 20 24 70 47 0 0 0 109 29
0 0 0 0 0 0 0 0 755 1092 1146 1053 816 647 536 376 271 74 426 271 627 626 682 604 584 435 234 518 401 335 176 218 256 198 617 514 165 105 51 57 40 15 62 14 5 0 53 83 51
0 0 0 0 0 0 0 71 309 1270 1200 1161 939 726 616 517 286 231 285 256 284 379 497 418 383 194 473 617 743 652 225 349 350 366 463 339 64 55 58 35 105 73 107 48 26 4 0 63 177
0 0 0 0 0 0 0 12 44 837 1287 1203 1088 912 710 845 669 174 279 412 243 295 591 480 648 350 502 989 1178 576 356 174 102 102 3 387 130 171 57 103 83 41 345 291 179 75 29 1 96
0 0 0 0 0 1 0 1 53 28 546 833 358 602 458 800 162 355 294 447 176 147 360 568 502 545 445 821 872 1179 628 338 217 115 219 200 569 383 335 141 17 0 141 227 92 50 183 171 48
0 0 2 0 0 47 90 112 139 119 379 444 440 254 79 821 79 611 279 533 808 427 797 917 514 751 765 900 1047 878 746 552 326 406 491 584 471 677 353 212 61 0 3 0 11 59 143 308 234
0 0 2 0 35 122 125 215 93 123 606 621 289 51 0 579 553 715 512 886 756 582 75 9 724 1109 1254 1434 1325 1093 1026 1024 884 580 714 737 696 610 495 443 399 277 13 24 136 285 252 207 91
0 0 0 0 41 241 94 53 56 101 97 279 478 553 36 69 82 664 442 697 350 370 602 166 307 1132 1405 1550 1385 1217 1137 1032 862 953 677 560 639 334 281 441 580 533 387 280 354 308 283 317 137
0 0 0 0 1 92 66 52 37 39 0 289 127 288 423 235 239 668 746 146 24 9 240 22 717 927 1412 1508 1271 1394 1011 912 1011 924 835 639 593 272 172 33 203 515 447 406 442 307 218 256 83
0 0 0 0 0 9 2 76 4 4 2 103 118 25 120 400 859 764 467 542 32 20 128 170 694 518 1355 1607 1357 1519 1193 1020 1060 1020 998 821 1018 521 362 248 343 466 466 578 546 331 354 93 83
0 0 0 0 0 0 1 1 0 0 0 0 0 39 69 299 992 1084 634 618 378 133 198 434 722 805 1609 1490 1685 1094 1100 1131 794 715 772 561 573 424 199 198 556 445 312 440 333 700 468 295 239
0 0 0 0 0 0 0 0 14 70 3 75 15 52 363 855 1018 1345 1438 1479 1023 727 1316 1026 1314 2232 2322 1496 1689 1523 1222 993 863 880 453 209 542 511 274 86 154 124 303 444 368 399 435 407 378
0 0 0 0 0 0 1 77 109 101 196 271 166 25 657 1019 1476 1485 1407 1746 2570 2584 2460 2729 2601 2241 1725 1667 994 433 143 50 12 1 26 82 84 130 145 45 0 23 210 478 404 402 348 378 611
0 0 0 0 0 2 25 0 97 75 163 202 93 6 909 1362 1576 1627 1576 1457 1667 2401 2604 2496 2253 1726 1345 662 361 106 31 0 84 79 64 19 12 29 21 29 1 0 3 149 502 536 549 497 519
0 0 0 0 8 138 9 7 47 105 4 23 0 115 1128 1633 1674 1728 1669 1593 1711 2111 2179 2241 2092 1622 777 589 267 107 14 0 0 0 24 39 34 37 5 0 19 1 0 0 33 473 561 631 508
0 0 0 0 35 81 142 0 10 52 3 0 43 244 852 1299 1576 1736 1748 1718 1622 1845 2033 2081 2025 1734 706 541 308 92 71 0 0 0 4 43 69 2 1 43 2 0 0 38 70 342 700 542 473
50 21 0 4 0 40 97 31 0 0 0 0 0 125 716 974 1306 1507 1376 1562 1731 1867 1829 1657 1885 1266 677 612 430 117 97 26 0 0 0 50 13 84 202 0 0 164 241 226 376 450 502 483 579
1 14 0 13 8 0 0 0 31 12 0 1 0 15 541 910 1051 1228 1395 1200 1088 1104 1124 1312 1118 1226 953 628 451 159 110 42 0 0 0 0 0 33 35 105 200 301 322 310 338 384 394 395 544